User: anonymous   Login
Location: Étavigny
(49.1201°N, 2.9800°E)
Time: 19:40:30
(UTC+00:00)
Language:

FENGYUN 1C DEB - Orbit

View from above orbital plane
View from above orbital plane
View from above satellite
View from above satellite

Ground track
Ground track

The orbit data is extracted from the following two-line orbital elements,

1 30540U 99025AKE 24062.52573274  .00004924  00000-0  22470-2 0  9992
2 30540  98.8741 155.5587 0064776 146.9306 346.9050 14.20900855880137
Epoch (UTC): 02 March 2024 12:37:03
Eccentricity: 0.0064776
inclination: 98.8741°
perigee height: 775 km
apogee height: 869 km
right ascension of ascending node: 155.5587°
argument of perigee: 146.9306°
revolutions per day: 14.20900855
mean anomaly at epoch: 346.9050°
orbit number at epoch: 88013

The dashed part of the orbit path shows where the satellite is in the earth's shadow,  

DLR